Regional Weather Roundup
Issued by NWS

Home | Current Version | Previous Version | Text Only | Print | Product List | Glossary Off
Versions: 1 2 3 4 5 6 7 8 9 10 11 12 13 14 15 16 17 18 19 20 21 22 23 24 25 26 27

000
ASUS45 KBOU 290107
RWRCO

WEATHER ROUNDUP FOR COLORADO
NATIONAL WEATHER SERVICE DENVER/BOULDER CO
700 PM MDT SUN AUG 28 2016

NOTE: "FAIR" INDICATES FEW OR NO CLOUDS BELOW 12000 FEET WITH NO
SIGNIFICANT WEATHER AND/OR OBSTRUCTIONS TO VISIBILITY.

COZ001>005-013-030-031-290200-
...NORTHWEST COLORADO...

CITY           SKY/WX    TMP DP  RH WIND       PRES   REMARKS
CRAIG          FAIR      75  33  21 SE10      30.23R
HAYDEN         FAIR      73  36  25 SE17G24   30.28R
MEEKER         FAIR      72  44  36 SW13      30.27S
MOUNT WERNER   NOT AVBL
STEAMBOAT SPGS CLOUDY    66  39  36 E12G21    30.34R
WALDEN         CLOUDY    61  30  31 W5        30.41S
$$

COZ006>008-011-290200-
...WEST CENTRAL VALLEYS...

CITY           SKY/WX    TMP DP  RH WIND       PRES   REMARKS
GRAND JUNCTION FAIR      75  41  29 E24       30.18F
MONTROSE       FAIR      72  46  39 VRB5      30.28R
EAGLE          CLOUDY    61  48  63 E10       30.39R
RIFLE          CLOUDY    70  45  40 MISG      30.26F
DELTA          FAIR      76  38  25 NE12      30.22R
NUCLA          MOCLDY   N/A N/A N/A E21       30.31R
$$

COZ017>023-064>068-290200-
...SOUTHWEST COLORADO...

CITY           SKY/WX    TMP DP  RH WIND       PRES   REMARKS
DURANGO        FAIR      63  44  50 W10       30.28R
CORTEZ         FAIR      69  49  48 NE7       30.24S
PAGOSA SPRINGS FAIR      66  38  34 W7G17     30.33R
TELLURIDE      RAIN      47  44  91 CALM      30.53S
WOLF CREEK PAS MOCLDY    41  34  75 NE7       30.63R
$$

COZ009-010-012-014-032>034-037-058>063-290200-
...CENTRAL COLORADO...

CITY           SKY/WX    TMP DP  RH WIND       PRES   REMARKS
ASPEN          MOCLDY    60  39  45 S13       30.42R
BUENA VISTA    FAIR      60  37  42 NW25G36   30.36S
COPPER MTN     TSTM      41  36  81 W15       30.69  VSB 1/4
BERTHOUD PASS  FAIR      34  21  60 MISG      30.69S THUNDER
COTTONWOOD PAS FAIR      55  36  47 CALM      30.48R
GUNNISON       MOCLDY    61  39  44 N17G26    30.37R THUNDER
KREMMLING      FAIR      55  41  58 SW3       30.44F
LEADVILLE      MOCLDY    46  40  79 N13       30.54R
MONARCH PASS   FAIR      46  32  57 W13       30.71S THUNDER
SALIDA         FAIR      67  39  36 N23G36    30.38R
SUNLIGHT       FAIR      45  41  87 S5        30.62S
WILKERSON PASS MOCLDY    48  36  61 E6        30.60S
$$

COZ069>075-290200-
...SAN LUIS VALLEY/SANGRE DE CRISTO MOUNTAINS...

CITY           SKY/WX    TMP DP  RH WIND       PRES   REMARKS
ALAMOSA        FAIR      70  38  31 W6        30.27R
LA VETA PASS   FAIR      54  37  54 E5        30.48S
SAGUACHE       FAIR      64  36  34 NW13G18   30.32R
$$

COZ035-036-038>040-290200-
...NORTHERN COLORADO FRONT RANGE...

CITY           SKY/WX    TMP DP  RH WIND       PRES   REMARKS
DENVER INTL AP MOCLDY    76  41  28 CALM      30.19R
DMNS CITY PARK   N/A     72  41  31 W5G10     30.18R
AURORA         MOCLDY    74  42  31 CALM      30.21R
FRONT RANGE AP MOCLDY    77  43  29 SE8G28    30.21S
ERIE MUNI ARPT FAIR      75  38  26 W6        30.15S
BOULDER MUN AP FAIR      77  41  27 W9        30.16S
CENTENNIAL     MOCLDY    73  39  29 NW9       30.21R
BROOMFIELD     NOT AVBL
FORT COLLINS   FAIR      79  43  27 E10       30.12S
LONGMONT       FAIR      76  41  28 CALM      30.16S
$$

COZ041-046-047-076>085-087-088-290200-
...PIKES PEAK/PALMER DIVIDE AND SOUTHERN FOOTHILLS...

CITY           SKY/WX    TMP DP  RH WIND       PRES   REMARKS
COLO. SPRINGS  MOCLDY    75  42  30 NE13      30.23R
A. F. ACADEMY  FAIR      70  44  39 CALM      30.25R
SCHRIEVER AFB  NOT AVBL
ELLICOTT       NOT AVBL
FALCON         FAIR      67  39  35 NE8       30.30R
FORT CARSON    FAIR      75  44  32 N6        30.19R
LIMON          FAIR      69  48  47 NW6       30.20R
MONUMENT HILL  FAIR      64  41  42 E7        30.31S
TRINIDAD       LGT RAIN  72  49  44 W13       30.17R
$$

COZ042>045-048>051-090-091-290200-
...NORTHEAST COLORADO...

CITY           SKY/WX    TMP DP  RH WIND       PRES   REMARKS
GREELEY ARPT   FAIR      77  45  31 E8        30.14R
AKRON          FAIR      78  49  35 SE9       30.14R
BURLINGTON     FAIR      80  54  40 SE10      30.12R
WRAY           NOT AVBL
STERLING       FAIR      77  48  36 NW17G26   30.12R
HOLYOKE        FAIR      77  59  53 SE8       30.10R
FORT MORGAN    CLOUDY    70  51  51 N12       30.17R
$$

COZ086-089-092>099-290200-
...SOUTHEAST COLORADO...

CITY           SKY/WX    TMP DP  RH WIND       PRES   REMARKS
PUEBLO         MOCLDY    85  45  24 NE14      30.08R
LA JUNTA       FAIR      83  55  38 E13       30.06R
LAMAR          FAIR      85  53  33 SE16      30.04R
SPRINGFIELD      N/A     72  61  68 S15       30.12R
$$




USA.gov is the U.S. government's official web portal to all federal, state and local government web resources and services.